Location: Chihuahua
(28.6330°N, 106.0830°W)
Time: 23:36:39
(UTC-07:00)

Daily predictions for brighter satellites

Satellite Brightness Start Highest point End
(mag) Time Altitude Azimuth Time Altitude Azimuth Time Altitude Azimuth
Okean 1 4.4 18:56:38 10° NNE 18:59:55 24° E 19:03:12 10° SE
NOSS 2-3 (C) 4.2 18:57:27 10° S 19:01:36 37° ESE 19:06:03 10° NE
Lacrosse 5 rocket 3.0 19:01:51 10° N 19:04:15 16° NE 19:06:42 10° E
Cosmos 2360 Rocket 3.8 19:03:32 10° SE 19:06:05 13° E 19:08:37 10° ENE
Cosmos 1980 Rocket 3.1 19:01:17 10° SW 19:06:45 54° WNW 19:12:14 10° N
Delta 2 Rocket 3.2 19:03:45 10° WSW 19:07:32 77° SSE 19:11:52 10° ENE
Cosmos 2227 Rocket 3.9 19:03:34 10° NW 19:08:40 35° WSW 19:13:46 10° SSW
FengYun 1-2 T 4.3 19:03:12 10° SSE 19:08:45 68° ENE 19:14:22 10° N
Delta R/B 1.9 19:15:36 10° W 19:18:15 49° S 19:19:06 19° ESE
CZ-2D R/B 3.8 19:16:06 10° SE 19:19:42 38° ENE 19:23:18 10° N
FREGAT/IRIS 4.1 19:20:19 10° S 19:23:09 39° W 19:26:01 10° NNW
XTE 4.4 19:24:20 10° WSW 19:26:45 24° S 19:28:13 16° SE
Helios 1B rocket 4.1 19:26:35 10° ENE 19:28:39 15° E 19:28:39 15° E
GPS 2-18 Rocket1 4.4 19:28:40 10° SW 19:31:42 24° S 19:33:29 17° SE
H-2A R/B 3.3 19:28:27 10° S 19:32:14 60° W 19:35:59 10° NNW
Okean 1 Rocket 4.4 19:32:10 18° ESE 19:33:18 19° E 19:36:25 10° NE
Envisat 3.6 19:30:50 13° SE 19:34:51 36° ENE 19:39:29 10° N
Cosmos 1300 Rocket 4.2 19:32:10 10° SSE 19:36:00 33° E 19:39:52 10° NNE
H-2A ROCKET BODY 3.1 19:37:51 10° SW 19:39:37 16° S 19:41:37 12° SSE
GOES 2 Rocket 4.2 19:34:11 10° W 19:39:54 43° SSW 19:43:05 19° SE
Cosmos 44 Rocket 3.3 19:35:53 10° NNW 19:40:35 58° ENE 19:43:50 20° SE
NOSS 2-3 (D) 3.8 19:36:46 10° SSW 19:41:18 84° WNW 19:46:16 10° NNE
USA 267 3.3 19:36:02 14° SE 19:41:47 80° NE 19:48:21 10° NW
Resurs 01 Rocket 1.6 19:38:48 10° SSE 19:43:13 72° ENE 19:47:39 10° N
SWAS 4.3 19:40:38 10° NNW 19:44:54 76° ENE 19:47:55 19° SSE
Cosmos 2266 Rocket 4.2 19:42:30 10° SSE 19:48:13 45° E 19:53:55 10° NNE
S3M 4.1 19:42:36 10° N 19:48:48 57° E 19:54:45 11° SSE
Atlas Centaur 2 3.0 19:41:03 10° W 19:49:31 80° N 19:54:46 21° E
Cosmos 2227 4.1 19:44:42 10° NNW 19:50:21 73° ENE 19:54:40 18° SSE
Cosmos 1553 Rocket 3.9 19:44:28 10° N 19:50:33 65° E 19:56:33 10° SSE
GPS 2-12 Rocket1 4.3 19:47:01 10° WSW 19:50:49 26° S 19:52:16 22° SSE
Cosmos 2151 Rocket 3.8 19:48:25 10° SSW 19:52:47 72° W 19:57:10 10° N
Cosmos 1975 Rocket 4.4 19:48:57 10° NNW 19:53:07 40° W 19:57:14 10° SSW
Palapa 6 Rocket 4.3 19:48:25 10° WSW 19:53:15 40° S 19:56:10 25° SE
ASTRO E2 4.3 19:58:42 10° SSW 20:00:44 20° S 20:00:44 20° S
Cosmos 1110 Rocket 4.2 19:57:48 10° S 20:02:41 44° E 20:07:34 10° NNE
ATLAS 2AS CENTAUR R/B 3.0 19:59:33 10° SSW 20:06:59 85° WNW 20:15:03 10° NNE
Helios 1A 3.8 20:08:11 32° ENE 20:08:11 32° ENE 20:11:46 10° N
Meteor 1-11 Rocket 4.1 20:02:32 10° SSW 20:08:23 71° W 20:14:10 10° N
Cosmos 2322 Rocket 3.5 20:10:55 10° SW 20:16:15 41° WNW 20:21:37 10° N
Cosmos 1331 Rocket 4.0 20:14:31 32° SSE 20:16:39 54° ESE 20:21:43 10° NNE
Cosmos 1536 Rocket 3.5 20:13:09 10° N 20:17:28 82° W 20:19:06 38° S
Cosmos 44 3.6 20:14:20 10° NW 20:18:45 56° WSW 20:20:39 32° S
YAOGAN 6 3.4 20:19:56 38° NNE 20:19:56 38° NNE 20:22:24 10° N
Cosmos 1850 Rocket 4.0 20:14:27 10° N 20:19:43 61° ENE 20:20:47 50° ESE
Cosmos 2263 Rocket 2.5 20:15:26 10° N 20:20:52 45° ENE 20:21:36 43° E
Cosmos 482 Debris 4.2 20:15:40 10° SW 20:21:17 89° SE 20:21:49 66° NE
Lacrosse 5 3.3 20:22:03 10° WSW 20:26:45 38° NW 20:31:27 10° NNE
SL-16 R/B 4.0 20:22:51 10° SW 20:27:50 32° WNW 20:32:52 10° N
USA 186 4.0 20:27:11 17° SW 20:28:46 24° W 20:31:34 10° NW
Cosmos 1939 Rocket 3.0 20:30:56 62° SW 20:31:18 66° W 20:35:14 10° NNW
Meteosat 1 Rocket2 3.8 20:26:50 10° W 20:32:07 83° S 20:34:32 45° E
SeaSat 1 4.4 20:29:00 10° N 20:33:15 30° WNW 20:37:29 10° WSW
Cosmos 1536 4.3 20:31:19 10° SSW 20:35:06 37° W 20:38:54 10° NNW
Meteor 1-23 Rocket 4.0 20:31:00 10° N 20:36:33 72° E 20:37:09 66° SE
FALCON 9 R/B 4.4 20:45:25 19° ENE 20:45:25 19° ENE 20:50:57 10° ENE
Cosmos 2322 3.6 20:32:23 10° SSW 20:38:01 88° ESE 20:43:43 10° NNE
Lacrosse 5 rocket 2.6 20:39:58 10° WNW 20:43:02 33° WSW 20:43:02 33° WSW
COSMOS 2428 4.2 20:51:12 24° NE 20:51:12 24° NE 20:53:29 10° NNE
Skynet4D Del rocket 3.8 20:41:24 10° W 20:48:15 69° S 20:48:36 68° SSE
Cosmos 2360 Rocket 2.7 20:43:57 10° SSW 20:49:28 57° WNW 20:55:01 10° N
Cosmos 1241 Rocket 4.4 20:50:53 69° E 20:50:53 69° E 20:57:10 10° NNE
DELTA 2 R/B (1) 3.8 20:55:12 10° WNW 21:00:11 64° WSW 21:00:11 64° WSW
Helios 1B rocket 4.3 21:00:40 10° NNW 21:04:12 28° WNW 21:05:00 26° W
ERS-1 Rocket 3.7 21:06:33 48° N 21:06:33 48° N 21:10:08 10° NNW
NOAA 11 4.4 21:08:26 67° NW 21:08:26 67° NW 21:13:14 10° NNW
Cosmos 1244 Rocket 4.4 21:09:21 80° WNW 21:09:21 80° WNW 21:15:27 10° N
H-2A R/B 3.8 21:20:05 23° N 21:20:05 23° N 21:22:01 10° N
ATLAS 3B R/B 3.2 21:21:55 10° NNW 21:26:52 46° NNE 21:26:52 46° NNE
Cosmos 1607 4.4 21:23:10 10° NNW 21:28:39 60° WNW 21:28:39 60° WNW
Atlas Centaur 2 3.3 21:31:33 10° W 21:37:23 50° W 21:37:23 50° W
Cosmos 2263 Rocket 4.5 22:00:42 10° WNW 22:03:19 17° W 22:03:19 17° W
Centaur D AC-29 4.5 22:06:10 10° WSW 22:08:06 15° WSW 22:08:06 15° WSW
